Regional Weather Roundup
Issued by NWS Wakefield, VA

Home | Current Version | Previous Version | Text Only | Print | Product List | Glossary Off
Versions: 1 2 3 4 5 6 7 8 9 10 11 12 13 14 15 16 17 18 19 20 21 22 23 24 25 26 27 28 29 30 31 32 33 34 35 36 37 38 39 40 41 42 43 44 45 46 47 48 49 50

000
ASUS41 KAKQ 281610
RWRAKQ

REGIONAL WEATHER ROUNDUP
NATIONAL WEATHER SERVICE WAKEFIELD VA
1200 PM EDT THU AUG 28 2014

Note: "fair" indicates few or no clouds below 12,000 feet with no
significant weather and/or obstructions to visibility. * = Denotes
station may not report precipitation (e.g., rain,snow,etc.),
thunder or fog.

VAZ042-051-052>054-056-281700-
NORTHERN VIRGINIA

CITY           SKY/WX    TMP DP  RH WIND       PRES   REMARKS
WASH NATIONAL  MOSUNNY   83  63  50 NW10G17   29.99S
DULLES         MOSUNNY   77  59  53 NW12      30.01F
FORT BELVOIR   SUNNY     81  60  48 W14       29.99F
QUANTICO       MOSUNNY   81  61  50 N9        30.00S
FREDERICKSBRG* SUNNY     83  56  39 NW6       29.99S
STAFFORD*      SUNNY     80  61  53 NW6       30.04S
WARRENTON      SUNNY     81  65  58 N9        30.01S
CULPEPER*      SUNNY    N/A N/A N/A N7        30.01S
MANASSAS*      SUNNY     79  63  57 N6        30.00F
LEESBURG*      SUNNY     79  63  57 NW15      30.02F
WINCHESTER     SUNNY     77  55  47 NW8G16    30.03S
$$

VAZ048-049-060>072-079>083-281700-
CENTRAL AND SOUTH CENTRAL VIRGINIA...AND NORTH CENTRAL NORTH CAROLINA

CITY           SKY/WX    TMP DP  RH WIND       PRES   REMARKS
RICHMOND       PTSUNNY   86  68  54 N7        29.97F
CHESTERFIELD*  PTSUNNY   84  64  51 N7        30.00F
HANOVER        SUNNY     85  68  56 VRB5      29.99F
TAPPAHANNOCK*  SUNNY     84  49  29 NW8       29.98S
CHARLOTTSVILLE MOSUNNY   84  65  52 NE7       30.00F
ORANGE*        SUNNY     81  64  57 N7        30.02S
LOUISA*        MOSUNNY   82  70  65 N6        29.99F
FARMVILLE*     PTSUNNY   84  68  58 S3        29.98S
SOUTH HILL*    PTSUNNY   84  70  61 N6        30.05S
ROANOKE RAPIDS SUNNY     86  72  62 N7        29.98S
RALEIGH        MOSUNNY   86  69  56 VRB3      30.01F
$$

VAZ088>098-281700-
SOUTHEAST VIRGINIA

CITY           SKY/WX    TMP DP  RH WIND       PRES   REMARKS
NORFOLK        MOSUNNY   82  70  66 N12       29.96S
VIRGINIA BEACH PTSUNNY   83  71  67 N15       29.95R
NORFOLK NAVAL  PTSUNNY   84  71  65 NE12      29.98S
WEST POINT*    MOSUNNY   86  65  49 NW5       29.98S
NEWPORT NEWS   MOSUNNY   88  72  58 CALM      29.97S
LANGLEY AFB    MOSUNNY   83  71  69 N6        29.96R
FORT EUSTIS    MOSUNNY   83  67  58 VRB6      29.95S
WILLIAMSBURG*  MOSUNNY   90  72  55 N6        29.98R HX  96
FRANKLIN*      PTSUNNY   84  70  61 N5        29.97S
WAKEFIELD      MOSUNNY   84  68  58 VRB6      29.98R
$$

VAZ020-022-025-037-045-281700-
WESTERN AND SOUTHWEST VIRGINIA

CITY           SKY/WX    TMP DP  RH WIND       PRES   REMARKS
STAUNTON*      PTSUNNY   82  65  55 N5        30.05F
HOT SPRINGS VA MOSUNNY   71  59  66 NW9       30.20S
LYNCHBURG      PTSUNNY   82  68  62 NW7       30.04F
DANVILLE       MOSUNNY   88  71  57 N6        30.02S
MARTINSVILLE   MOSUNNY   86  69  57 NE6       30.07S
ROANOKE        PTSUNNY   82  66  58 W7        30.06F
BLACKSBURG     MOSUNNY   79  70  73 NW6       30.13F
DUBLIN*        MOSUNNY   80  69  70 N5        30.12F
MARION*        PTSUNNY  N/A N/A N/A SW8       30.17F
HILLSVILLE*    CLOUDY    75  66  74 N6        30.15F
RICHLANDS*     MOSUNNY   77  68  73 W5        30.17F
WISE*          CLOUDY    77  68  73 NW5       30.18S
ABINGDON*      PTSUNNY   80  67  65 SW5       30.14F
$$

MDZ021>025-VAZ099-100-281700-
SOUTHERN MARYLAND AND THE DELMARVA PENINSULA

CITY           SKY/WX    TMP DP  RH WIND       PRES   REMARKS
PATUXENT RIVER MOSUNNY   83  68  60 NW10      29.96F
BAY BRIDGE APT   N/A     79  57  47 N10       29.97S
LEONARDTOWN    SUNNY     81  63  54 NW9       29.98F
DOVER          SUNNY     79  59  50 NW15      29.94S
GEORGETOWN     SUNNY     80  59  48 W8        29.94F
EASTON         SUNNY     82  64  54 NW12G17   30.00S
CAMBRIDGE      SUNNY     79  59  50 NW15      29.96R
SALISBURY      SUNNY     84  63  49 NW8       29.94S
OCEAN CITY     MOSUNNY   83  66  56 N9        29.92F
WALLOPS ISLAND SUNNY     84  68  58 N8        29.94S
ACCOMACK*        N/A    N/A N/A N/A MISG        N/A
$$

NCZ012>017-030>032-281700-
EASTERN NORTH CAROLINA

CITY           SKY/WX    TMP DP  RH WIND       PRES   REMARKS
ELIZABETH CITY SUNNY     85  72  65 NW7       29.96S
AHOSKIE*       SUNNY     83  69  63 N3        29.98S
EDENTON*       SUNNY     82  69  66 W5        29.97F
CURRITUCK*     MOSUNNY   84  69  61 CALM      29.96F
KILL DEVIL HLS SUNNY     81  69  66 W7        29.95S
MANTEO         SUNNY     83  70  64 NW10      29.96S
CAPE HATTERAS  SUNNY     81  69  67 W10       29.97F
GOLDSBORO      MOSUNNY   83  74  72 W6        29.97F
WASHINGTON     MOSUNNY   83  67  58 NW6       29.98F
GREENVILLE     MOSUNNY   82  68  61 CALM      30.00S
NEW BERN       SUNNY     88  64  44 W3        30.00S
WILMINGTON     SUNNY     87  63  44 VRB6      30.01S
$$

VAZ048-281700-
ELSEWHERE

CITY           SKY/WX    TMP DP  RH WIND       PRES   REMARKS
HARRISBURG PA  PTSUNNY   74  56  53 N8        30.00F
BALTIMORE      MOSUNNY   81  60  48 NW12      29.97F
ANNAPOLIS      SUNNY     78  62  57 NW8       29.96F
ANDREWS AFB    SUNNY     81  63  54 NW13      29.98F
WILMINGTON DE  SUNNY     78  59  51 NW14G21   29.96F
PHILADELPHIA   MOSUNNY   77  54  44 NW17      29.95F
WILDWOOD NJ*   SUNNY     77  57  50 NW8G21    29.94S
ATLANTIC CITY  SUNNY     79  58  48 NW14      29.91F
HENDERSON NC   SUNNY     83  69  61 NE3       30.02S
GREENSBORO     PTSUNNY   87  68  52 N6        30.04S
ROCKY MOUNT    MOSUNNY   83  69  62 E3        29.99F
FAYETTEVILLE   SUNNY     90  64  42 NW6       30.00S
CHARLOTTE      SUNNY     87  63  44 VRB5      30.05S
$$

VAZ100-281700-
MARINE

STATION/POSITION TIME  TEMP    WIND        PRES    WAVE   SWELL
                       AIR SEA DIR/SP/G            HT/PER HT/PER
                 (UTC) (F)     (DEG/KT/KT) (MB)    (FT/S) (FT/S)
44066 TX TWR #4  1600   72 73  340/ 17/ 21 1010.5R   8/13   7/13
CAPE MAY NJ      1600   77 80  320/  7/ 18 1013.1S
LEWES DE         1600   74 76  340/ 16/ 19 1013.6S
15NM E FENWICK I 1600   74 74              1012.9F   5/13
OCEAN-CITY-INLET 1600   78 75   10/  9/ 11 1013.0S
WACHAPREAGUE VA  1600   82 78   10/  6/ 12 1013.8F
THOMAS POINT MD  1600   76 78  360/ 11/ 12 1015.6S
GOOSES REEF MD   1600   76      20/ 10/ 12 1015.3S
COVE POINT MD    1600   75      20/  9/ 12 1014.7S
SOLOMONS ISLAND  1600      80                N/A
BISHOPS HEAD MD  1600   80 79  340/  9/ 14 1014.0R
PINEY POINT MD   1600          340/ 10/ 11   N/A
POTOMAC MD       1600   77      40/ 12/ 16 1014.1S
CAMBRIDGE MD     1600   77 78  330/ 11/ 15 1014.2S
LEWISETTA VA     1600   79 80  360/  6/  8 1014.3S
RAPPAHANNOCK LGT 1600          350/ 18/ 19 1014.6F
STINGRAY PT      1600   78      30/ 12/ 16   N/A
YORK RVR RNG VA  1600   79     350/  7/  8 1014.1R
YORKTOWN VA      1600   81 80  360/  5/  5 1014.2F
JAMESTOWN VA     1600   81      20/  6/ 12   N/A
DOMINION TERM VA 1600   83     360/  2/  5 1014.7R
KIPTOPEKE VA     1600      81  360/ 11/ 15   N/A
CHES BAY BRIDGE  1600   78 78  350/ 15/ 17 1014.1R
CAPE HENRY VA    1600   78     340/ 16/ 17 1013.3R
CHESAPEAKE LGHT  1500   77     360/ 12/ 13 1014.6R
WILLOUBY STN VA  1600   80      10/  9/ 10 1013.5R
S CRANEY ISL VA  1600          330/  7/  9 1014.4R
CAPE HENRY BUOY  1600      77                N/A     3/13   2/13
1ST LANDING BUOY 1600   78     350/ 16/ 19 1014.0R
CAPE CHARLES BUO 1600      76                N/A     3/13   3/13
OFFSHORE WE BUOY 1600      76                N/A     4/12   3/12
64NM E OF VA BCH 1600   76 75  320/ 12/ 14 1012.9R   4/12   3/12
DUCK PIER NC     1600   79 76  340/  7/  8 1013.7S
44056 DUCK FRF   1600                        N/A     3/12   2/12
OREGON INLET NC  1600   82 77  280/  7/ 12 1014.2F
HATTERAS NC      1600   80 78  270/ 11/ 13 1015.4S
DIAMOND SHLS NC  1600   80     270/ 14/ 17 1014.8F   5/11   3/11
CAPE LOOKOUT NC  1500   80     270/ 10/ 12 1015.9R
$$



USA.gov is the U.S. government's official web portal to all federal, state and local government web resources and services.